Regional Weather Roundup
Issued by NWS Albany, NY

Home | Current Version | Previous Version | Graphics & Text | Print | Product List | Glossary Off
Versions: 1 2 3 4 5 6 7 8 9 10 11 12 13 14 15 16 17 18 19 20 21 22 23 24 25 26 27 28 29 30 31 32 33 34 35 36 37 38 39 40 41 42 43 44 45 46 47 48 49 50

000
ASUS41 KALY 272110
RWRALY

NEW YORK STATE HOURLY WEATHER ROUNDUP
NATIONAL WEATHER SERVICE ALBANY NY
500 PM EDT WED AUG 27 2014

NOTE: "FAIR" INDICATES FEW OR NO CLOUDS BELOW 12,000 FEET WITH NO
SIGNIFICANT WEATHER AND/OR NO OBSTRUCTIONS TO VISIBILITY.

NYZ032-033-038>043-046>054-057>066-NYZ062>081-272200-
EAST


CITY           SKY/WX    TMP DP  RH WIND       PRES   REMARKS
ALBANY         PTSUNNY   81  68  64 W12       29.90S
GLENS FALLS    MOSUNNY   84  67  56 SW14G21   29.86S
POUGHKEEPSIE   MOSUNNY   89  67  47 SW6       29.85F HX  92
NEWBURGH       PTSUNNY   88  70  55 W12G17    29.89F HX  92
MONTGOMERY     MOSUNNY   88  68  51 SW7       29.87F HX  91
WHITE PLAINS   MOSUNNY   86  63  45 S10       29.89F
ISLIP          MOSUNNY   82  63  52 S10       29.89F
NEW YORK CITY  MOSUNNY   87  64  46 S15       29.88F
CENTRAL PARK   SUNNY     87  63  44 S8        29.91F
$$

NYZ005>009-017-018-044>046-055-056-272200-
CENTRAL


CITY           SKY/WX    TMP DP  RH WIND       PRES   REMARKS
FULTON         SUNNY     73  55  53 W14       29.98S
SYRACUSE       MOSUNNY   77  62  59 NW15      29.97S
ROME           MOSUNNY   76  60  57 W14       29.97S
ELMIRA         PTSUNNY   81  70  69 NE8       29.96S
BINGHAMTON     CLOUDY    74  66  76 N10       30.00S
MONTICELLO     MOSUNNY   82  68  61 NW8       29.96F
$$

NYZ026>034-041>043-272200-
NORTH


CITY           SKY/WX    TMP DP  RH WIND       PRES   REMARKS
WATERTOWN      MOSUNNY   72  61  68 SW9       29.97R
FORT DRUM      NOT AVBL
MASSENA        CLOUDY    74  59  59 NW7       29.93S
SARANAC LAKE   PTSUNNY   74  56  53 VRB7      29.95R
PLATTSBURGH    SUNNY     80  61  52 NW9       29.87R
$$

NYZ001>004-010>016-019>021-272200-
WEST


CITY           SKY/WX    TMP DP  RH WIND       PRES   REMARKS
NIAGARA FALLS  PTSUNNY   77  54  44 NW15      30.01S
BUFFALO        PTSUNNY   75  60  59 SW15      30.02R
DUNKIRK        MOSUNNY   74  59  59 W13       30.04F
JAMESTOWN      PTSUNNY   70  61  73 W15       30.08R
WELLSVILLE     SUNNY     77  62  59 NW14      30.05S
ROCHESTER      PTSUNNY   73  55  53 NW10G18   30.01R
PENN YAN       SUNNY     78  63  59 NW14      29.99S
$$

             KEY
       WCI = WIND CHILL INDEX
       VSB = VISIBILITY
       HX  = HEAT INDEX
$$


USA.gov is the U.S. government's official web portal to all federal, state and local government web resources and services.